PDA6026 UKBB-LGKR

Flight info

Callsign PDA6026
Flight time N/A
Altitude 36000
Route VESEL M141 IVF M986 LONLA/N0460F360 DCT PERIT DCT PARAK DCT PIVEX DCT ALELU DCT RINAV DCT PITAS
Aircraft B738/M-SDE2E3FGHIRWXY/LB1

Departure

Time 2026-05-07 17:55
Airport Boryspil International Airport (UKBB)

Arrival

Time N/A
Airport Corfu Ioannis Kapodistrias International Airport (LGKR)
Time Latitude Longitude Altitude Speed Heading
2026-05-07 17:22 50.33560 30.90002 411 ft 0 kts
2026-05-07 17:49 50.33561 30.90002 411 ft 1 kts
2026-05-07 17:49 50.33589 30.90016 411 ft 6 kts 50°
2026-05-07 17:49 50.33609 30.90120 411 ft 12 kts 60°
2026-05-07 17:49 50.33711 30.90150 411 ft 17 kts
2026-05-07 17:50 50.33831 30.90158 410 ft 16 kts
2026-05-07 17:50 50.33945 30.90166 410 ft 15 kts
2026-05-07 17:50 50.34054 30.90173 409 ft 14 kts
2026-05-07 17:50 50.34170 30.90181 409 ft 18 kts
2026-05-07 17:51 50.34318 30.90195 408 ft 23 kts
2026-05-07 17:51 50.34492 30.90207 407 ft 25 kts
2026-05-07 17:51 50.34666 30.90220 407 ft 24 kts
2026-05-07 17:51 50.34831 30.90231 406 ft 22 kts
2026-05-07 17:52 50.34986 30.90243 405 ft 21 kts
2026-05-07 17:52 50.35136 30.90252 405 ft 20 kts
2026-05-07 17:52 50.35274 30.90270 404 ft 17 kts 19°
2026-05-07 17:52 50.35288 30.90387 403 ft 0 kts 141°
2026-05-07 17:53 50.35284 30.90392 403 ft 2 kts 142°
2026-05-07 17:53 50.35258 30.90419 403 ft 6 kts 150°
2026-05-07 17:53 50.35209 30.90460 403 ft 9 kts 153°
2026-05-07 17:53 50.35140 30.90513 403 ft 12 kts 156°
2026-05-07 17:54 50.35043 30.90555 404 ft 17 kts 169°
2026-05-07 17:54 50.34939 30.90566 404 ft 0 kts 182°
2026-05-07 17:54 50.34885 30.90562 404 ft 35 kts 182°
2026-05-07 17:54 50.34351 30.90520 407 ft 113 kts 183°
2026-05-07 17:55 50.33362 30.90463 617 ft 157 kts 184°
2026-05-07 17:55 50.32267 30.90344 1486 ft 156 kts 187°
2026-05-07 17:55 50.31165 30.90218 2114 ft 162 kts 188°
2026-05-07 17:55 50.29972 30.90051 2594 ft 178 kts 187°
2026-05-07 17:56 50.28630 30.89953 3101 ft 196 kts 184°
2026-05-07 17:56 50.27188 30.89886 3658 ft 212 kts 184°
2026-05-07 17:56 50.25676 30.89801 4203 ft 227 kts 184°
2026-05-07 17:56 50.24064 30.89708 4947 ft 233 kts 183°
2026-05-07 17:57 50.22408 30.89613 5686 ft 240 kts 183°
2026-05-07 17:57 50.21271 30.89545 6104 ft 248 kts 183°
2026-05-07 17:57 50.19014 30.88428 6820 ft 267 kts 219°
2026-05-07 17:57 50.17963 30.86041 7629 ft 273 kts 247°
2026-05-07 17:58 50.17383 30.83232 8429 ft 277 kts 250°
2026-05-07 17:58 50.16765 30.80351 9196 ft 281 kts 249°
2026-05-07 17:58 50.16093 30.77457 9953 ft 285 kts 248°
2026-05-07 17:58 50.15382 30.74514 10573 ft 294 kts 247°
2026-05-07 17:59 50.14636 30.71487 11001 ft 309 kts 247°
2026-05-07 17:59 50.13831 30.68242 11440 ft 324 kts 247°
2026-05-07 17:59 50.13001 30.64905 11830 ft 339 kts 247°
2026-05-07 17:59 50.12117 30.61354 12230 ft 354 kts 247°
2026-05-07 18:00 50.11220 30.57754 12791 ft 362 kts 248°
2026-05-07 18:00 50.10299 30.54055 13530 ft 364 kts 248°
2026-05-07 18:00 50.09360 30.50295 14246 ft 368 kts 248°
2026-05-07 18:00 50.08428 30.46569 14924 ft 372 kts 248°
2026-05-07 18:01 50.07479 30.42782 15614 ft 375 kts 248°
2026-05-07 18:01 50.06516 30.38942 16291 ft 378 kts 248°
2026-05-07 18:01 50.05563 30.35150 16959 ft 381 kts 248°
2026-05-07 18:01 50.04591 30.31290 17604 ft 383 kts 247°
2026-05-07 18:02 50.02647 30.23585 18796 ft 391 kts 247°
2026-05-07 18:02 50.01646 30.19635 19326 ft 396 kts 247°
2026-05-07 18:02 50.00631 30.15641 19877 ft 400 kts 247°
2026-05-07 18:03 49.99601 30.11595 20449 ft 403 kts 247°
2026-05-07 18:03 49.98544 30.07455 20940 ft 408 kts 247°
2026-05-07 18:03 49.97496 30.03353 21477 ft 411 kts 247°
2026-05-07 18:03 49.96437 29.99213 21971 ft 415 kts 248°
2026-05-07 18:04 49.95374 29.95061 22438 ft 419 kts 248°
2026-05-07 18:04 49.94302 29.90878 22957 ft 421 kts 248°
2026-05-07 18:04 49.93208 29.86618 23412 ft 425 kts 248°
2026-05-07 18:04 49.92101 29.82313 23926 ft 427 kts 248°
2026-05-07 18:05 49.90989 29.77999 24381 ft 430 kts 248°
2026-05-07 18:05 49.89882 29.73710 24855 ft 433 kts 248°
2026-05-07 18:05 49.88751 29.69336 25301 ft 436 kts 248°
2026-05-07 18:05 49.87620 29.64978 25700 ft 439 kts 249°
2026-05-07 18:06 49.86473 29.60562 26144 ft 442 kts 249°
2026-05-07 18:06 49.85308 29.56090 26553 ft 445 kts 249°
2026-05-07 18:06 49.84140 29.51610 26973 ft 447 kts 249°
2026-05-07 18:06 49.82966 29.47114 27359 ft 450 kts 249°
2026-05-07 18:07 49.81791 29.42625 27749 ft 453 kts 249°
2026-05-07 18:07 49.80604 29.38102 28124 ft 456 kts 249°
2026-05-07 18:07 49.79547 29.34082 28440 ft 458 kts 249°
2026-05-07 18:07 49.78314 29.29398 28795 ft 461 kts 249°
2026-05-07 18:08 49.77106 29.24820 29183 ft 463 kts 249°
2026-05-07 18:08 49.75881 29.20188 29504 ft 466 kts 249°
2026-05-07 18:08 49.74649 29.15533 29934 ft 467 kts 249°
2026-05-07 18:08 49.73413 29.10871 30522 ft 464 kts 249°
2026-05-07 18:09 49.72184 29.06248 30975 ft 463 kts 249°
2026-05-07 18:09 49.70958 29.01648 31521 ft 460 kts 250°
2026-05-07 18:09 49.69720 28.97012 31934 ft 460 kts 249°
2026-05-07 18:09 49.68486 28.92408 32383 ft 459 kts 249°
2026-05-07 18:10 49.67283 28.87924 32834 ft 457 kts 249°
2026-05-07 18:10 49.66075 28.83429 33289 ft 455 kts 249°
2026-05-07 18:10 49.64872 28.78958 33764 ft 453 kts 249°
2026-05-07 18:10 49.63684 28.74552 34263 ft 449 kts 249°
2026-05-07 18:11 49.62489 28.70131 34607 ft 449 kts 249°
2026-05-07 18:11 49.61698 28.67208 34849 ft 447 kts 249°
2026-05-07 18:11 49.60095 28.61284 35263 ft 446 kts 249°
2026-05-07 18:11 49.58918 28.56945 35535 ft 446 kts 249°
2026-05-07 18:12 49.57733 28.52582 35803 ft 446 kts 249°
2026-05-07 18:12 49.56534 28.48177 35983 ft 446 kts 249°
2026-05-07 18:12 49.55843 28.45642 35996 ft 448 kts 249°
2026-05-07 18:13 49.55730 28.45229 35998 ft 448 kts 249°
2026-05-07 18:13 49.53425 28.36801 36006 ft 445 kts 249°
2026-05-07 18:14 49.51259 28.28911 36011 ft 443 kts 248°
2026-05-07 18:14 49.48880 28.20268 36016 ft 444 kts 248°
2026-05-07 18:15 49.46472 28.11560 36012 ft 442 kts 248°
2026-05-07 18:15 49.44093 28.02983 36018 ft 442 kts 248°
2026-05-07 18:16 49.41721 27.94467 36021 ft 442 kts 248°
2026-05-07 18:16 49.39437 27.85885 36017 ft 440 kts 252°
2026-05-07 18:17 49.37882 27.76940 36016 ft 440 kts 257°
2026-05-07 18:17 49.36526 27.67816 36005 ft 440 kts 258°
2026-05-07 18:18 49.35199 27.58752 36006 ft 439 kts 257°
2026-05-07 18:18 49.33873 27.49761 35996 ft 438 kts 257°
2026-05-07 18:19 49.32539 27.40783 35999 ft 439 kts 257°
2026-05-07 18:19 49.31184 27.31737 35997 ft 439 kts 256°
2026-05-07 18:20 49.29828 27.22727 35996 ft 440 kts 256°
2026-05-07 18:20 49.28462 27.13694 35994 ft 440 kts 256°
2026-05-07 18:21 49.27096 27.04718 35992 ft 440 kts 256°
2026-05-07 18:21 49.25738 26.95854 35984 ft 439 kts 256°
2026-05-07 18:22 49.24364 26.86933 35980 ft 438 kts 256°
2026-05-07 18:22 49.22973 26.77962 35978 ft 438 kts 256°
2026-05-07 18:23 49.21601 26.69164 35978 ft 436 kts 256°
2026-05-07 18:23 49.20185 26.60179 35979 ft 437 kts 256°
2026-05-07 18:24 49.18778 26.51255 35980 ft 437 kts 256°
2026-05-07 18:24 49.17376 26.42433 35975 ft 435 kts 256°
2026-05-07 18:25 49.15992 26.33796 35975 ft 435 kts 255°
2026-05-07 18:25 49.14602 26.25238 35972 ft 436 kts 255°
2026-05-07 18:26 49.13161 26.16398 35974 ft 434 kts 255°
2026-05-07 18:26 49.11713 26.07505 35970 ft 435 kts 255°
2026-05-07 18:27 49.10269 25.98746 35969 ft 433 kts 255°
2026-05-07 18:27 49.08833 25.89897 35975 ft 433 kts 256°
2026-05-07 18:28 49.07448 25.81317 35970 ft 434 kts 256°
2026-05-07 18:28 49.06015 25.72550 35972 ft 432 kts 255°
2026-05-07 18:29 49.04546 25.63681 35972 ft 432 kts 255°
2026-05-07 18:29 49.03088 25.54947 35978 ft 433 kts 255°
2026-05-07 18:30 49.01619 25.46217 35978 ft 433 kts 255°
2026-05-07 18:30 48.99862 25.37473 35975 ft 431 kts 242°
2026-05-07 18:31 48.96389 25.30106 35975 ft 431 kts 231°
2026-05-07 18:31 48.92649 25.23043 35978 ft 430 kts 231°
2026-05-07 18:32 48.89018 25.15940 35975 ft 430 kts 232°
2026-05-07 18:32 48.85515 25.08936 35975 ft 430 kts 232°
2026-05-07 18:33 48.81998 25.01848 35973 ft 430 kts 232°
2026-05-07 18:33 48.78404 24.94587 35973 ft 429 kts 232°
2026-05-07 18:34 48.74903 24.87525 35970 ft 429 kts 232°
2026-05-07 18:34 48.71349 24.80354 35970 ft 429 kts 232°
2026-05-07 18:35 48.67827 24.73264 35976 ft 428 kts 232°
2026-05-07 18:35 48.64282 24.66144 35983 ft 427 kts 232°
2026-05-07 18:36 48.60727 24.59022 35986 ft 428 kts 232°
2026-05-07 18:36 48.57236 24.52040 35992 ft 426 kts 232°
2026-05-07 18:37 48.53711 24.45013 35999 ft 425 kts 232°
2026-05-07 18:37 48.50127 24.37893 36004 ft 427 kts 232°
2026-05-07 18:38 48.46553 24.30850 36012 ft 425 kts 231°
2026-05-07 18:38 48.43076 24.24034 36017 ft 426 kts 232°
2026-05-07 18:39 48.39476 24.16896 36016 ft 426 kts 232°
2026-05-07 18:39 48.35920 24.09867 36012 ft 425 kts 232°
2026-05-07 18:40 48.32402 24.02946 36011 ft 425 kts 231°
2026-05-07 18:40 48.28845 23.95983 36005 ft 423 kts 231°
2026-05-07 18:41 48.25332 23.89126 36004 ft 424 kts 231°
2026-05-07 18:41 48.21758 23.82163 36002 ft 425 kts 231°
2026-05-07 18:42 48.18232 23.75314 36009 ft 425 kts 231°
2026-05-07 18:42 48.14426 23.68541 36007 ft 424 kts 221°
2026-05-07 18:43 48.09705 23.63380 36009 ft 425 kts 214°
2026-05-07 18:43 48.04872 23.58423 36012 ft 425 kts 216°
2026-05-07 18:44 48.00187 23.53458 36014 ft 425 kts 216°
2026-05-07 18:44 47.95428 23.48325 36012 ft 425 kts 217°
2026-05-07 18:45 47.90813 23.43312 36009 ft 425 kts 217°
2026-05-07 18:45 47.86115 23.38195 36011 ft 425 kts 217°
2026-05-07 18:46 47.81620 23.33304 36013 ft 426 kts 216°
2026-05-07 18:46 47.76871 23.28144 36012 ft 425 kts 216°
2026-05-07 18:47 47.72136 23.23009 36009 ft 425 kts 216°
2026-05-07 18:47 47.67412 23.17892 36011 ft 425 kts 216°
2026-05-07 18:48 47.62738 23.12843 36009 ft 425 kts 216°
2026-05-07 18:48 47.58003 23.07741 36011 ft 425 kts 216°
2026-05-07 18:49 47.53270 23.02657 36011 ft 426 kts 216°
2026-05-07 18:49 47.48548 22.97593 36013 ft 426 kts 216°
2026-05-07 18:50 47.43762 22.92472 36011 ft 426 kts 216°
2026-05-07 18:50 47.38999 22.87383 36010 ft 427 kts 217°
2026-05-07 18:51 47.34226 22.82296 36007 ft 425 kts 216°
2026-05-07 18:51 47.29520 22.77296 36005 ft 426 kts 217°
2026-05-07 18:52 47.24808 22.72298 36006 ft 426 kts 217°
2026-05-07 18:52 47.20110 22.67327 36008 ft 426 kts 217°
2026-05-07 18:53 47.15334 22.62283 36006 ft 426 kts 217°
2026-05-07 18:53 47.10643 22.57341 36004 ft 425 kts 217°
2026-05-07 18:54 47.05977 22.52437 36003 ft 424 kts 217°
2026-05-07 18:54 47.01330 22.47563 36000 ft 426 kts 217°
2026-05-07 18:55 46.96846 22.42870 36005 ft 425 kts 217°
2026-05-07 18:55 46.92298 22.38120 36010 ft 425 kts 217°
2026-05-07 18:56 46.87742 22.33376 36012 ft 425 kts 216°
2026-05-07 18:56 46.83174 22.28625 36010 ft 425 kts 216°
2026-05-07 18:57 46.78631 22.23909 36012 ft 425 kts 216°
2026-05-07 18:57 46.73817 22.18924 36011 ft 425 kts 216°
2026-05-07 18:58 46.69254 22.14211 36010 ft 425 kts 216°
2026-05-07 18:58 46.64706 22.09524 36009 ft 425 kts 216°
2026-05-07 18:59 46.59880 22.04559 36011 ft 425 kts 216°
2026-05-07 18:59 46.55267 21.99823 36011 ft 425 kts 216°
2026-05-07 19:00 46.50474 21.94915 36007 ft 425 kts 216°
2026-05-07 19:00 46.45762 21.90099 36002 ft 425 kts 216°
2026-05-07 19:01 46.41013 21.85255 35998 ft 425 kts 216°
2026-05-07 19:01 46.36394 21.80553 35997 ft 425 kts 216°